EW6289 Weather Reports


Display with metric or nautical units.
time (UTC)temp
F
wind
direction
speed
MPH
gust
MPH
rain 1hr
in
rain 24hr
in
rain mn
in
humidity
%
barometer
mb
20260503190046 0 227 0.0 0.0 0.00 0.00 0.00 1012.1
20260503184540 0 244 0.0 1.0 0.00 0.00 0.00 1012.2
20260503183043 0 304 0.0 0.0 0.00 0.01 0.00 1012.4
20260503181529 0 274 0.0 4.0 0.00 0.01 0.00 1012.8
20260503180027 0 274 0.0 1.0 0.00 0.01 0.00 1012.8
20260503174528 0 203 0.0 0.0 0.00 0.01 0.00 1013.0
20260503173054 0 280 0.0 0.0 0.00 0.01 0.00 1013.2
20260503171542 0 284 0.0 0.0 0.00 0.01 0.00 1013.2
20260503090115 0 360 0.0 0.0 0.00 0.01 0.00 1013.4
20260503081548 0 360 0.0 0.0 0.00 0.01 0.00 1013.4
20260503071533 0 360 0.0 0.0 0.00 0.01 0.00 1013.2
20260503054537 0 360 0.0 0.0 0.00 0.01 0.00 1013.3
20260503053024 0 360 0.0 0.0 0.00 0.01 0.00 1013.5
20260503051525 0 360 0.0 0.0 0.00 0.01 0.00 1013.5
20260503050018 0 360 0.0 0.0 0.00 0.01 0.00 1013.5
20260503044509 0 360 0.0 0.0 0.00 0.01 0.00 1013.6
20260503043006 0 360 0.0 0.0 0.00 0.01 0.00 1013.7
20260503041531 0 360 0.0 0.0 0.00 0.01 0.00 1013.7
20260503040029 0 360 0.0 0.0 0.00 0.01 0.00 1013.7
20260503034520 0 360 0.0 0.0 0.00 0.01 0.00 1013.7
20260503033018 0 360 0.0 0.0 0.00 0.01 0.01 1013.6
20260503031516 0 360 0.0 0.0 0.00 0.01 0.01 1013.7
20260503030014 0 360 0.0 0.0 0.00 0.01 0.01 1013.7
20260503024539 0 360 0.0 0.0 0.00 0.01 0.01 1013.7
20260503023036 0 360 0.0 0.0 0.00 0.01 0.01 1013.9
20260503021501 0 360 0.0 0.0 0.00 0.01 0.01 1014.0
20260503020057 0 360 0.0 0.0 0.00 0.01 0.01 1013.9
20260503014522 0 360 0.0 0.0 0.00 0.01 0.01 1013.9
20260503013018 0 360 0.0 0.0 0.00 0.01 0.01 1013.9
20260503011511 0 360 0.0 0.0 0.00 0.01 0.01 1013.9
20260503010011 0 360 0.0 0.0 0.00 0.01 0.01 1013.7
20260503004503 0 360 0.0 1.0 0.00 0.01 0.01 1013.6
20260503003103 0 94 0.0 0.0 0.00 0.01 0.01 1013.3
20260503001524 0 94 0.0 0.0 0.00 0.01 0.01 1013.3
20260503000020 0 92 0.0 0.0 0.00 0.01 0.01 1013.2
20260502234513 0 251 0.0 0.0 0.00 0.01 0.01 1013.1
20260502233015 0 266 0.0 0.0 0.00 0.09 0.01 1013.0
20260502231508 0 316 0.0 0.0 0.00 0.09 0.01 1013.0
20260502230101 0 316 0.0 0.0 0.00 0.09 0.01 1013.1
20260502224603 0 219 0.0 0.0 0.00 0.09 0.01 1013.1
20260502223022 0 251 0.0 0.0 0.00 0.09 0.01 1013.1
20260502221517 0 267 0.0 0.0 0.00 0.09 0.01 1013.0
20260502220044 0 257 0.0 3.0 0.00 0.09 0.01 1013.0
20260502214549 0 296 0.0 0.0 0.00 0.09 0.01 1012.9
20260502213032 0 273 0.0 0.0 0.00 0.09 0.01 1012.9
20260502211529 0 264 0.0 0.0 0.00 0.09 0.01 1012.7
20260502210029 0 335 0.0 0.0 0.00 0.09 0.01 1012.6
20260502204519 0 304 0.0 1.0 0.00 0.09 0.01 1012.7
20260502203011 0 320 0.0 2.0 0.00 0.12 0.01 1012.7
20260502201511 0 140 0.0 0.0 0.00 0.12 0.01 1012.7
20260502200004 0 347 0.0 0.0 0.00 0.12 0.01 1012.8
20260502194602 0 287 0.0 0.0 0.00 0.12 0.01 1012.7
20260502193028 0 327 0.0 0.0 0.01 0.16 0.01 1012.8
20260502191520 0 281 0.0 0.0 0.01 0.16 0.01 1012.9